"startDT [UTC]","vpos","CH4 [ppm]","stdev(CH4) [ppm]","CO2 [ppm]","stdev(CO2) [ppm]","H2O [ppm]","stdev(H2O)","p_LGR [torr]","T_LGR [C]","mt1_LGR [us]","mt2_LGR [us]","T_ECpre [C]","T_EC1 [C]","T_EC2 [C]","p_inlet [hPa]","p_in [hPa]","p_out [hPa]","T_inlet [C]","RH_inlet [%]","dwpt_inlet [C]","T_vent [C]","RH_vent [%]","dwpt_vent [C]","flow_vent [l min-1]","flow_inlet [l min-1]","dwpt_sample [C]","T_room [C]"
2012-07-26 00:00:00,0.0,1.9520,0.0012,379.18,0.33,171.3,29.3,138.00,33.45,24.65,36.47,0.96,2.59,-26.17,-51,553,-935,28.9,28.4,8.8,28.8,1.2,-30.4,5.73,2.40,-26.6,32.6
2012-07-26 00:01:00,0.0,1.9505,0.0012,379.25,0.37,175.3,28.3,138.00,33.45,24.65,36.47,0.96,2.90,-26.15,-51,553,-935,28.9,28.3,8.7,28.8,1.2,-30.3,5.73,2.40,-26.6,32.6
2012-07-26 00:02:00,0.0,1.9509,0.0011,379.20,0.47,176.5,32.4,138.00,33.45,24.65,36.47,0.96,3.07,-26.13,-51,553,-935,28.9,28.2,8.6,28.8,1.2,-30.4,5.73,2.39,-26.6,32.6
2012-07-26 00:03:00,0.0,1.9500,0.0010,379.56,0.28,179.9,31.1,138.00,33.45,24.65,36.47,0.96,3.42,-26.12,-51,553,-935,28.9,28.1,8.6,28.8,1.2,-30.6,5.73,2.38,-26.6,32.6
2012-07-26 00:04:00,0.0,1.9507,0.0012,379.55,0.32,187.0,32.7,138.00,33.45,24.65,36.47,0.96,3.97,-26.10,-50,553,-935,28.9,28.2,8.6,28.8,1.2,-30.6,5.73,2.39,-26.6,32.6
2012-07-26 00:05:00,0.0,1.9510,0.0011,379.41,0.28,178.0,34.0,138.00,33.46,24.65,36.47,0.96,4.51,-26.09,-51,553,-935,28.9,28.3,8.7,28.8,1.2,-30.6,5.73,2.39,-26.6,32.6
2012-07-26 00:06:00,0.0,1.9530,0.0014,378.98,0.33,176.7,26.5,138.00,33.46,24.65,36.46,0.95,5.08,-26.07,-50,553,-935,28.9,28.7,8.9,28.8,1.2,-30.6,5.73,2.40,-26.5,32.6
2012-07-26 00:07:00,0.0,1.9535,0.0012,378.60,0.41,175.0,27.6,138.00,33.46,24.65,36.47,0.96,5.62,-26.06,-51,553,-935,28.9,29.1,9.1,28.8,1.2,-30.6,5.73,2.40,-26.6,32.6
2012-07-26 00:08:00,0.0,1.9511,0.0018,378.83,0.62,177.5,25.6,138.00,33.47,24.65,36.47,0.96,6.13,-26.04,-51,553,-935,28.9,28.4,8.7,28.8,1.2,-30.6,5.73,2.39,-26.5,32.6
2012-07-26 00:09:00,0.0,1.9512,0.0013,378.69,0.37,185.5,30.5,138.00,33.47,24.65,36.46,0.96,6.62,-26.02,-50,553,-935,28.9,28.7,8.9,28.8,1.2,-30.6,5.73,2.39,-26.5,32.7
2012-07-26 00:10:00,0.0,1.9510,0.0009,378.78,0.29,178.2,35.4,138.00,33.47,24.65,36.47,0.96,7.10,-26.01,-51,553,-935,28.9,28.4,8.8,28.8,1.2,-30.6,5.73,2.38,-26.5,32.6
2012-07-26 00:11:00,0.0,1.9495,0.0015,379.21,0.37,179.6,35.2,138.00,33.47,24.65,36.47,0.96,7.56,-26.00,-51,553,-935,28.9,28.2,8.7,28.8,1.2,-30.6,5.73,2.38,-26.5,32.6
2012-07-26 00:12:00,0.0,1.9519,0.0011,378.70,0.30,183.7,30.1,138.00,33.47,24.65,36.46,0.95,8.00,-25.98,-51,553,-935,28.9,28.5,8.8,28.8,1.2,-30.6,5.73,2.39,-26.5,32.6
2012-07-26 00:13:00,0.0,1.9514,0.0011,378.75,0.32,182.1,30.0,138.00,33.47,24.65,36.46,0.95,8.42,-25.98,-50,553,-935,28.9,28.4,8.8,28.9,1.2,-30.6,5.73,2.40,-26.5,32.6
2012-07-26 00:14:00,0.0,1.9507,0.0012,378.66,0.35,185.8,33.1,138.00,33.47,24.65,36.47,0.96,8.82,-25.96,-51,553,-935,28.9,28.3,8.7,28.9,1.2,-30.6,5.73,2.40,-26.5,32.6
2012-07-26 00:15:00,0.0,1.9509,0.0009,378.42,0.27,176.2,35.9,138.00,33.48,24.65,36.47,0.96,9.21,-25.95,-51,553,-935,28.9,28.5,8.8,28.9,1.2,-30.6,5.73,2.39,-26.5,32.6
2012-07-26 00:16:00,0.0,1.9498,0.0025,379.11,0.51,179.0,26.8,138.00,33.48,24.65,36.47,0.95,9.59,-25.94,-51,553,-935,28.9,27.8,8.5,28.8,1.2,-30.6,5.73,2.38,-26.5,32.6
2012-07-26 00:17:00,0.0,1.9509,0.0019,378.76,0.55,183.9,27.6,138.00,33.48,24.65,36.46,0.95,9.95,-25.93,-51,553,-935,28.9,28.4,8.7,28.9,1.2,-30.5,5.73,2.38,-26.5,32.6
2012-07-26 00:18:00,0.0,1.9510,0.0011,378.66,0.29,181.2,27.4,138.00,33.49,24.65,36.47,0.96,10.31,-25.91,-51,553,-935,28.9,28.2,8.7,28.9,1.2,-30.6,5.73,2.39,-26.5,32.6
2012-07-26 00:19:00,0.0,1.9494,0.0011,379.26,0.30,185.7,30.3,138.00,33.49,24.65,36.47,0.96,10.66,-25.90,-51,553,-935,28.9,28.0,8.6,28.9,1.2,-30.6,5.73,2.39,-26.5,32.6
2012-07-26 00:20:00,0.0,1.9491,0.0010,379.11,0.34,194.4,30.1,138.00,33.49,24.65,36.47,0.95,10.99,-25.89,-51,553,-935,28.9,27.9,8.5,28.9,1.2,-30.5,5.73,2.40,-26.5,32.6
2012-07-26 00:21:00,0.0,1.9485,0.0009,379.31,0.28,185.7,28.2,138.00,33.49,24.65,36.46,0.95,11.31,-25.88,-51,553,-935,28.9,27.8,8.5,28.9,1.2,-30.6,5.73,2.40,-26.5,32.6
2012-07-26 00:22:00,0.0,1.9504,0.0013,378.81,0.34,187.2,28.6,138.00,33.49,24.65,36.46,0.96,11.62,-25.87,-51,553,-935,28.9,28.2,8.7,28.9,1.2,-30.5,5.73,2.39,-26.5,32.5
2012-07-26 00:23:00,0.0,1.9494,0.0015,378.95,0.43,182.1,26.2,138.00,33.49,24.65,36.47,0.97,11.92,-25.86,-51,553,-935,28.9,27.6,8.4,28.9,1.2,-30.5,5.73,2.38,-26.5,32.6
2012-07-26 00:24:00,0.0,1.9524,0.0026,378.56,0.47,182.3,30.2,138.00,33.50,24.65,36.47,0.95,12.21,-25.85,-51,553,-935,28.9,28.7,9.0,28.9,1.2,-30.6,5.73,2.38,-26.5,32.6
2012-07-26 00:25:00,0.0,1.9548,0.0008,378.08,0.30,177.7,26.0,138.00,33.50,24.65,36.47,0.96,12.49,-25.83,-51,553,-935,28.9,29.0,9.1,28.9,1.2,-30.5,5.73,2.40,-26.5,32.5
2012-07-26 00:26:00,0.0,1.9552,0.0012,378.33,0.35,178.6,34.0,138.00,33.51,24.65,36.46,0.96,12.76,-25.83,-51,553,-935,29.0,28.6,8.9,28.9,1.2,-30.5,5.73,2.40,-26.3,32.6
2012-07-26 00:27:00,0.0,1.9537,0.0010,378.06,0.32,180.5,23.8,138.00,33.51,24.65,36.46,0.97,13.02,-25.82,-51,553,-935,29.0,28.7,9.0,28.9,1.2,-30.5,5.73,2.40,-26.1,32.6
2012-07-26 00:28:00,0.0,1.9529,0.0011,378.21,0.41,186.3,29.3,138.00,33.51,24.65,36.47,0.96,13.27,-25.80,-51,553,-935,29.0,28.6,8.9,28.9,1.2,-30.5,5.73,2.39,-26.1,32.7
2012-07-26 00:29:00,0.0,1.9533,0.0012,378.33,0.37,180.6,28.2,138.00,33.51,24.65,36.47,0.96,13.51,-25.80,-51,553,-935,29.0,28.5,8.9,28.9,1.2,-30.6,5.73,2.37,-26.1,32.7
2012-07-26 00:30:00,0.0,1.9536,0.0014,378.59,0.29,184.9,26.4,138.00,33.51,24.65,36.47,0.96,13.73,-25.79,-51,553,-935,29.0,28.3,8.8,28.9,1.2,-30.5,5.73,2.38,-26.1,32.8
2012-07-26 00:31:00,0.0,1.9549,0.0013,378.57,0.32,173.3,27.6,138.00,33.52,24.65,36.46,0.97,13.95,-25.78,-51,553,-935,29.0,28.3,8.8,28.9,1.2,-30.5,5.73,2.39,-26.1,32.7
2012-07-26 00:32:00,0.0,1.9555,0.0011,378.43,0.29,178.3,30.8,138.00,33.52,24.65,36.47,0.97,14.16,-25.77,-51,553,-935,29.0,28.4,8.8,29.0,1.2,-30.5,5.73,2.39,-26.1,32.7
2012-07-26 00:33:00,0.0,1.9555,0.0008,378.55,0.38,184.2,28.4,138.00,33.52,24.65,36.47,0.97,14.36,-25.76,-50,554,-935,29.0,28.2,8.7,29.0,1.2,-30.5,5.73,2.40,-26.1,32.7
2012-07-26 00:34:00,0.0,1.9559,0.0010,378.75,0.28,185.0,27.0,138.00,33.53,24.65,36.46,0.97,14.55,-25.76,-51,554,-935,29.0,28.3,8.8,29.0,1.2,-30.6,5.73,2.38,-26.1,32.7
2012-07-26 00:35:00,0.0,1.9556,0.0009,378.40,0.30,187.1,35.1,138.00,33.53,24.65,36.47,0.96,14.74,-25.75,-51,554,-935,29.0,28.5,8.9,29.0,1.2,-30.5,5.73,2.38,-26.1,32.7
2012-07-26 00:36:00,0.0,1.9519,0.0021,378.58,0.45,181.9,29.4,138.00,33.53,24.65,36.47,0.97,14.92,-25.74,-51,554,-935,29.0,28.1,8.7,29.0,1.2,-30.6,5.73,2.38,-26.1,32.7
2012-07-26 00:37:00,0.0,1.9546,0.0022,378.00,0.48,178.3,27.9,138.00,33.54,24.65,36.47,0.96,15.08,-25.74,-51,554,-935,29.0,29.0,9.2,29.0,1.2,-30.6,5.73,2.39,-26.1,32.7
2012-07-26 00:38:00,0.0,1.9534,0.0037,378.24,0.62,180.2,26.0,138.00,33.54,24.65,36.47,0.97,15.24,-25.74,-51,554,-935,29.0,28.2,8.8,29.0,1.2,-30.7,5.73,2.40,-26.1,32.7
2012-07-26 00:39:00,0.0,1.9457,0.0012,379.63,0.46,186.5,28.3,138.00,33.55,24.65,36.46,0.96,15.40,-25.72,-51,554,-935,29.0,26.8,8.0,29.0,1.2,-30.7,5.73,2.39,-26.1,32.8
2012-07-26 00:40:00,0.0,1.9456,0.0018,379.79,0.50,189.1,27.8,138.00,33.55,24.65,36.47,0.96,15.55,-25.72,-51,554,-935,29.1,27.1,8.2,29.0,1.2,-30.5,5.73,2.38,-26.1,32.7
2012-07-26 00:41:00,0.0,1.9504,0.0012,378.42,0.32,184.2,30.6,138.00,33.55,24.65,36.47,0.97,15.68,-25.71,-51,554,-935,29.0,28.0,8.7,29.0,1.2,-30.5,5.73,2.38,-26.1,32.7
2012-07-26 00:42:00,0.0,1.9460,0.0012,379.28,0.43,182.3,31.7,138.00,33.56,24.65,36.47,0.97,15.82,-25.70,-51,554,-935,29.1,27.4,8.3,29.0,1.2,-30.6,5.73,2.38,-26.1,32.8
2012-07-26 00:43:00,0.0,1.9449,0.0012,379.46,0.32,184.1,27.8,138.00,33.56,24.65,36.47,0.96,15.95,-25.70,-51,554,-935,29.1,27.1,8.2,29.0,1.2,-30.7,5.73,2.39,-26.1,32.8
2012-07-26 00:44:00,0.0,1.9451,0.0023,379.55,0.57,183.7,29.9,138.00,33.56,24.65,36.46,0.96,16.07,-25.69,-51,554,-935,29.1,26.8,8.0,29.0,1.2,-30.6,5.73,2.39,-26.1,32.7
2012-07-26 00:45:00,0.0,1.9408,0.0020,380.38,0.47,186.0,27.9,138.00,33.57,24.65,36.47,0.96,16.19,-25.69,-51,554,-935,29.1,26.5,7.8,29.0,1.2,-30.7,5.73,2.38,-26.1,32.7
2012-07-26 00:46:00,0.0,1.9448,0.0014,379.69,0.32,186.9,31.1,138.00,33.57,24.65,36.46,0.96,16.30,-25.69,-51,554,-935,29.1,26.9,8.1,29.0,1.2,-30.8,5.73,2.38,-26.1,32.8
2012-07-26 00:47:00,0.0,1.9464,0.0010,379.40,0.33,186.4,26.5,138.00,33.57,24.65,36.47,0.96,16.41,-25.68,-51,554,-935,29.1,26.9,8.1,29.0,1.2,-30.7,5.73,2.37,-26.1,32.8
2012-07-26 00:48:00,0.0,1.9438,0.0019,379.78,0.48,183.9,31.7,138.00,33.57,24.65,36.46,0.96,16.51,-25.68,-51,554,-935,29.1,26.4,7.8,29.0,1.2,-30.7,5.73,2.38,-26.2,32.7
2012-07-26 00:49:00,0.0,1.9448,0.0027,379.72,0.46,184.9,32.5,138.00,33.58,24.65,36.47,0.97,16.61,-25.67,-51,554,-935,29.1,27.0,8.2,29.0,1.2,-30.8,5.73,2.39,-26.1,32.7
2012-07-26 00:50:00,0.0,1.9550,0.0012,378.96,0.31,178.1,28.5,138.00,33.58,24.65,36.47,0.96,16.71,-25.66,-51,554,-935,29.1,27.8,8.6,29.0,1.2,-30.7,5.73,2.40,-26.1,32.8
2012-07-26 00:51:00,0.0,1.9570,0.0015,379.04,0.26,183.0,30.1,138.00,33.59,24.65,36.47,0.97,16.79,-25.66,-51,554,-935,29.1,27.7,8.5,29.0,1.2,-30.8,5.73,2.38,-26.2,32.8
2012-07-26 00:52:00,0.0,1.9563,0.0025,379.10,0.31,190.7,29.4,138.00,33.59,24.65,36.47,0.96,16.89,-25.65,-51,554,-935,29.1,27.8,8.6,29.1,1.2,-30.7,5.73,2.37,-26.1,32.9
2012-07-26 00:53:00,0.0,1.9581,0.0012,378.94,0.32,197.4,25.1,138.00,33.59,24.65,36.46,0.96,16.97,-25.65,-51,554,-935,29.1,27.8,8.6,29.1,1.2,-30.7,5.73,2.38,-26.1,32.9
2012-07-26 00:54:00,0.0,1.9541,0.0025,379.29,0.34,189.4,27.3,138.00,33.60,24.65,36.46,0.96,17.05,-25.65,-51,554,-935,29.1,27.4,8.4,29.1,1.2,-30.7,5.73,2.39,-26.1,32.9
2012-07-26 00:55:00,0.0,1.9550,0.0011,378.91,0.31,184.6,25.7,138.00,33.60,24.65,36.47,0.96,17.12,-25.64,-51,554,-935,29.1,27.8,8.7,29.1,1.2,-30.7,5.73,2.39,-26.1,32.8
2012-07-26 00:56:00,0.0,1.9559,0.0017,378.79,0.28,186.6,28.5,137.99,33.60,24.65,36.46,0.97,17.20,-25.63,-51,554,-935,29.1,27.9,8.7,29.1,1.2,-30.7,5.73,2.38,-26.1,32.9
2012-07-26 00:57:00,0.0,1.9565,0.0015,378.95,0.28,186.7,28.1,138.00,33.60,24.65,36.47,0.96,17.28,-25.63,-51,554,-935,29.1,28.1,8.8,29.1,1.2,-30.7,5.73,2.37,-26.1,32.9
2012-07-26 00:58:00,0.0,1.9594,0.0011,378.59,0.35,188.3,31.7,138.00,33.60,24.65,36.47,0.97,17.34,-25.62,-51,554,-935,29.1,28.1,8.8,29.1,1.2,-30.7,5.73,2.37,-26.1,32.9
2012-07-26 00:59:00,0.0,1.9538,0.0044,378.95,0.36,191.6,30.9,137.99,33.61,24.65,36.47,0.97,17.41,-25.62,-51,554,-935,29.2,27.7,8.6,29.1,1.2,-30.7,5.73,2.39,-26.1,32.9
2012-07-26 01:00:00,0.0,1.9503,0.0023,378.94,0.36,185.9,26.5,137.99,33.61,24.65,36.47,0.96,17.47,-25.61,-51,554,-935,29.2,27.5,8.5,29.1,1.2,-30.7,5.73,2.40,-26.1,32.9
2012-07-26 01:01:00,0.0,1.9516,0.0013,379.27,0.47,193.2,30.2,137.99,33.62,24.64,36.46,0.96,17.52,-25.62,-51,554,-935,29.2,27.4,8.4,29.1,1.2,-30.7,5.73,2.38,-26.1,32.9
2012-07-26 01:02:00,0.0,1.9483,0.0011,379.38,0.36,185.8,26.7,137.99,33.62,24.65,36.47,0.96,17.59,-25.61,-51,554,-935,29.2,27.5,8.5,29.1,1.2,-30.7,5.73,2.37,-26.1,33.0
2012-07-26 01:03:00,0.0,1.9502,0.0010,379.14,0.29,186.4,28.9,137.99,33.63,24.64,36.47,0.98,17.64,-25.60,-51,554,-935,29.2,27.5,8.5,29.1,1.2,-30.7,5.73,2.38,-26.1,33.0
2012-07-26 01:04:00,0.0,1.9509,0.0010,379.35,0.32,186.6,30.0,137.99,33.63,24.65,36.46,0.98,17.69,-25.60,-51,554,-935,29.2,27.3,8.4,29.1,1.2,-30.6,5.73,2.39,-26.1,33.0
2012-07-26 01:05:00,0.0,1.9513,0.0009,379.66,0.31,189.4,32.2,137.99,33.64,24.65,36.45,0.97,17.74,-25.59,-51,554,-935,29.2,27.2,8.4,29.1,1.2,-30.7,5.73,2.39,-26.1,33.0
2012-07-26 01:06:00,0.0,1.9521,0.0009,379.67,0.32,194.6,25.2,137.99,33.64,24.65,36.46,0.97,17.79,-25.59,-51,555,-935,29.2,27.1,8.3,29.2,1.2,-30.7,5.73,2.38,-26.1,33.0
2012-07-26 01:07:00,0.0,1.9523,0.0010,379.43,0.36,180.5,31.2,137.99,33.64,24.65,36.46,0.97,17.84,-25.59,-51,554,-935,29.2,27.3,8.4,29.2,1.2,-30.6,5.73,2.37,-26.1,33.0
2012-07-26 01:08:00,0.0,1.9513,0.0009,379.40,0.29,193.4,29.4,137.99,33.65,24.65,36.47,0.97,17.88,-25.59,-51,555,-935,29.2,27.3,8.4,29.2,1.2,-30.6,5.73,2.37,-26.1,33.0
2012-07-26 01:09:00,0.0,1.9495,0.0011,379.67,0.34,188.4,30.2,137.99,33.65,24.65,36.46,0.97,17.92,-25.59,-51,555,-935,29.2,27.1,8.4,29.2,1.2,-30.6,5.73,2.38,-26.1,33.0
2012-07-26 01:10:00,0.0,1.9520,0.0010,379.29,0.35,185.2,30.1,137.99,33.66,24.65,36.46,0.99,17.96,-25.58,-51,554,-935,29.2,27.5,8.5,29.2,1.2,-30.6,5.73,2.39,-26.1,32.9
2012-07-26 01:11:00,0.0,1.9540,0.0008,378.78,0.30,187.9,24.7,137.99,33.66,24.65,36.46,0.98,18.00,-25.58,-51,554,-935,29.3,28.0,8.9,29.2,1.2,-30.7,5.73,2.38,-26.1,33.0
2012-07-26 01:12:00,0.0,1.9533,0.0012,379.24,0.38,190.2,28.5,137.99,33.66,24.65,36.46,0.99,18.04,-25.57,-51,555,-935,29.3,27.3,8.5,29.2,1.2,-30.6,5.73,2.37,-26.1,33.0
2012-07-26 01:13:00,0.0,1.9538,0.0014,379.25,0.28,181.7,29.2,137.99,33.67,24.65,36.46,0.98,18.08,-25.57,-51,555,-935,29.3,27.6,8.7,29.2,1.2,-30.7,5.73,2.38,-26.1,33.0
2012-07-26 01:14:00,0.0,1.9542,0.0018,379.21,0.32,178.8,25.8,137.99,33.67,24.65,36.46,0.99,18.11,-25.57,-51,555,-935,29.3,27.4,8.5,29.2,1.2,-30.6,5.73,2.39,-26.1,33.0
2012-07-26 01:15:00,0.0,1.9508,0.0009,379.69,0.25,196.8,29.4,137.99,33.68,24.65,36.46,0.97,18.14,-25.57,-51,555,-935,29.3,26.9,8.3,29.2,1.2,-30.6,5.73,2.39,-26.1,32.9
2012-07-26 01:16:00,0.0,1.9522,0.0021,379.34,0.39,181.8,27.8,137.99,33.68,24.65,36.46,0.96,18.18,-25.56,-51,555,-935,29.3,27.6,8.7,29.2,1.2,-30.6,5.73,2.37,-26.1,33.0
2012-07-26 01:17:00,0.0,1.9538,0.0011,378.81,0.31,187.0,22.6,137.99,33.69,24.65,36.46,0.97,18.20,-25.56,-51,555,-935,29.3,27.9,8.8,29.2,1.2,-30.7,5.73,2.36,-26.1,33.0
2012-07-26 01:18:00,0.0,1.9556,0.0018,378.96,0.30,187.1,29.5,137.99,33.69,24.65,36.46,0.98,18.23,-25.56,-51,555,-935,29.3,27.9,8.8,29.2,1.2,-30.6,5.73,2.38,-26.1,33.1
2012-07-26 01:19:00,0.0,1.9552,0.0013,379.25,0.32,187.0,31.4,137.99,33.70,24.65,36.46,0.97,18.26,-25.56,-51,555,-935,29.3,27.6,8.7,29.2,1.2,-30.6,5.73,2.39,-26.1,33.1
2012-07-26 01:20:00,0.0,1.9564,0.0015,379.40,0.28,189.7,32.3,137.99,33.70,24.65,36.46,0.97,18.28,-25.56,-51,555,-935,29.3,27.6,8.7,29.2,1.2,-30.7,5.73,2.38,-26.1,33.1
2012-07-26 01:21:00,0.0,1.9564,0.0011,379.42,0.31,189.3,29.8,137.99,33.70,24.65,36.46,0.97,18.31,-25.56,-51,555,-935,29.3,27.8,8.8,29.3,1.2,-30.6,5.73,2.37,-26.1,33.0
2012-07-26 01:22:00,0.0,1.9588,0.0017,379.40,0.27,192.6,32.9,137.99,33.71,24.65,36.46,0.96,18.33,-25.56,-51,555,-935,29.3,27.9,8.8,29.2,1.2,-30.6,5.73,2.37,-26.1,33.0
2012-07-26 01:23:00,0.0,1.9591,0.0016,379.28,0.34,193.8,33.9,137.99,33.71,24.65,36.46,0.96,18.36,-25.55,-51,555,-935,29.3,27.8,8.8,29.3,1.2,-30.6,5.73,2.39,-26.1,32.9
2012-07-26 01:24:00,0.0,1.9599,0.0014,379.19,0.29,195.3,29.0,137.99,33.72,24.65,36.46,0.96,18.38,-25.55,-51,555,-935,29.3,28.0,8.9,29.3,1.2,-30.6,5.73,2.39,-26.1,32.9
2012-07-26 01:25:00,0.0,1.9603,0.0009,379.53,0.26,194.3,25.5,137.99,33.72,24.65,36.46,0.96,18.39,-25.55,-51,555,-935,29.3,27.8,8.8,29.3,1.2,-30.5,5.73,2.37,-26.1,33.0
2012-07-26 01:26:00,0.0,1.9631,0.0027,379.53,0.30,190.1,32.6,137.99,33.73,24.65,36.46,0.97,18.42,-25.54,-51,555,-935,29.3,28.2,9.0,29.3,1.2,-30.6,5.73,2.36,-26.1,33.1
2012-07-26 01:27:00,0.0,1.9679,0.0013,379.19,0.33,194.4,30.1,137.99,33.73,24.65,36.46,0.97,18.45,-25.54,-51,555,-935,29.3,28.5,9.1,29.3,1.2,-30.6,5.73,2.38,-26.1,33.1
2012-07-26 01:28:00,0.0,1.9714,0.0029,379.80,0.30,195.1,27.4,137.99,33.74,24.65,36.46,0.96,18.46,-25.54,-51,555,-935,29.3,28.3,9.1,29.3,1.2,-30.5,5.73,2.39,-26.1,33.1
2012-07-26 01:29:00,0.0,1.9503,0.0094,379.87,0.38,193.5,29.8,137.99,33.74,24.65,36.46,0.96,18.48,-25.54,-51,555,-935,29.3,26.2,8.0,29.3,1.2,-30.6,5.73,2.38,-26.1,33.1
2012-07-26 01:30:00,0.0,1.9390,0.0012,380.52,0.27,193.2,33.0,137.99,33.75,24.65,36.47,0.97,18.50,-25.54,-51,555,-935,29.4,25.5,7.5,29.3,1.2,-30.7,5.73,2.37,-26.1,33.2
2012-07-26 01:31:00,0.0,1.9415,0.0010,380.12,0.27,192.6,31.1,137.99,33.75,24.65,36.47,0.96,18.51,-25.54,-51,555,-935,29.4,25.7,7.7,29.3,1.2,-30.7,5.73,2.37,-26.1,33.1
2012-07-26 01:32:00,0.0,1.9420,0.0009,380.67,0.37,196.8,34.8,137.99,33.75,24.65,36.46,0.97,18.52,-25.54,-51,555,-935,29.4,25.6,7.6,29.3,1.2,-30.6,5.73,2.38,-26.1,33.0
2012-07-26 01:33:00,0.0,1.9424,0.0010,380.52,0.34,192.2,24.2,137.99,33.76,24.65,36.46,0.98,18.54,-25.54,-51,555,-935,29.4,25.4,7.5,29.3,1.2,-30.5,5.73,2.38,-26.1,33.1
2012-07-26 01:34:00,0.0,1.9436,0.0010,380.22,0.31,198.0,30.3,137.99,33.76,24.65,36.46,0.95,18.56,-25.54,-51,555,-935,29.4,25.6,7.6,29.3,1.1,-30.8,5.73,2.37,-26.1,33.0
2012-07-26 01:35:00,0.0,1.9434,0.0010,379.99,0.30,192.2,30.6,137.99,33.77,24.65,36.46,0.98,18.57,-25.53,-51,555,-935,29.4,25.8,7.7,29.3,1.1,-30.8,5.73,2.36,-26.2,33.0
2012-07-26 01:36:00,0.0,1.9436,0.0012,380.08,0.40,191.2,34.4,137.99,33.78,24.65,36.46,1.10,18.43,-25.54,-51,555,-935,29.4,26.1,7.9,29.3,1.1,-30.8,5.73,2.37,-26.2,33.1
2012-07-26 01:37:00,0.0,1.9472,0.0015,379.48,0.42,199.3,25.9,137.99,33.78,24.65,36.46,1.13,16.94,-25.54,-51,555,-935,29.4,26.7,8.2,29.3,1.1,-30.8,5.73,2.39,-26.1,33.1
2012-07-26 01:38:00,0.0,1.9484,0.0011,380.07,0.29,191.0,33.6,137.99,33.79,24.65,36.46,1.01,14.70,-25.54,-51,555,-935,29.4,26.5,8.2,29.4,1.1,-30.8,5.73,2.38,-26.1,33.1
2012-07-26 01:39:00,0.0,1.9511,0.0016,379.62,0.26,206.9,27.6,137.99,33.79,24.65,36.47,1.12,12.36,-25.54,-51,555,-935,29.4,26.6,8.2,29.4,1.1,-30.9,5.73,2.36,-26.1,33.1
2012-07-26 01:40:00,0.0,1.9450,0.0013,380.05,0.32,203.1,29.8,137.99,33.80,24.65,36.46,1.07,10.06,-25.53,-51,555,-935,29.4,25.6,7.7,29.4,1.1,-30.8,5.73,2.36,-26.1,33.2
2012-07-26 01:41:00,0.0,1.9483,0.0022,379.52,0.34,195.4,31.9,137.99,33.80,24.65,36.47,1.03,7.84,-25.52,-51,555,-935,29.4,26.6,8.2,29.4,1.2,-30.6,5.73,2.38,-26.1,33.2
2012-07-26 01:42:00,0.0,1.9494,0.0021,378.99,0.47,203.5,27.1,137.99,33.80,24.65,36.46,1.13,5.73,-25.50,-51,555,-935,29.4,26.5,8.2,29.4,1.2,-30.6,5.73,2.38,-26.1,33.2
2012-07-26 01:43:00,0.0,1.9470,0.0014,379.55,0.35,199.3,23.5,137.99,33.81,24.65,36.46,1.07,3.70,-25.47,-51,555,-935,29.5,26.2,8.0,29.4,1.2,-30.6,5.73,2.37,-26.1,33.2
2012-07-26 01:44:00,0.0,1.9459,0.0019,379.82,0.37,196.5,26.8,137.99,33.82,24.65,36.47,1.02,1.78,-25.45,-51,555,-935,29.5,25.5,7.6,29.4,1.2,-30.5,5.73,2.36,-26.1,33.2
2012-07-26 01:45:00,0.0,1.9458,0.0019,380.25,0.25,206.3,24.5,137.99,33.82,24.65,36.46,1.12,-0.03,-25.44,-51,556,-935,29.5,25.9,7.9,29.4,1.2,-30.6,5.73,2.37,-26.1,33.1
2012-07-26 01:46:00,0.0,1.9540,0.0013,379.99,0.30,205.1,25.7,137.99,33.83,24.65,36.46,1.07,-1.75,-25.42,-51,555,-935,29.5,26.6,8.2,29.4,1.2,-30.5,5.73,2.38,-26.1,33.1
2012-07-26 01:47:00,0.0,1.9483,0.0044,380.00,0.27,204.5,30.9,137.99,33.83,24.65,36.46,1.02,-3.15,-25.40,-51,555,-935,29.5,25.7,7.8,29.4,1.2,-30.5,5.73,2.37,-26.1,33.0
2012-07-26 01:48:00,0.0,1.9477,0.0042,379.91,0.28,199.3,28.2,137.99,33.84,24.65,36.46,1.10,-4.51,-25.39,-51,556,-935,29.5,26.6,8.3,29.4,1.2,-30.5,5.73,2.35,-26.1,33.1
2012-07-26 01:49:00,0.0,1.9535,0.0009,379.91,0.30,198.4,26.6,137.99,33.84,24.65,36.46,1.08,-5.54,-25.37,-51,556,-935,29.5,26.8,8.4,29.4,1.2,-30.5,5.73,2.37,-26.1,33.1
2012-07-26 01:50:00,0.0,1.9553,0.0014,380.18,0.30,207.3,27.9,137.99,33.85,24.65,36.46,1.00,-7.09,-25.36,-51,555,-935,29.5,26.7,8.3,29.4,1.2,-30.5,5.73,2.39,-26.1,33.1
2012-07-26 01:51:00,0.0,1.9580,0.0013,380.08,0.28,204.5,32.1,137.99,33.85,24.65,36.47,1.06,-8.31,-25.35,-51,556,-935,29.5,26.9,8.4,29.4,1.2,-30.5,5.73,2.38,-26.1,33.2
2012-07-26 01:52:00,0.0,1.9586,0.0009,380.44,0.27,202.4,29.3,137.99,33.86,24.65,36.46,1.12,-9.54,-25.35,-51,556,-935,29.5,26.6,8.3,29.4,1.2,-30.5,5.73,2.35,-26.1,33.1
2012-07-26 01:53:00,0.0,1.9599,0.0013,380.18,0.33,206.5,27.3,137.99,33.87,24.65,36.46,1.04,-10.61,-25.34,-51,556,-935,29.5,26.9,8.5,29.5,1.2,-30.5,5.73,2.36,-26.1,33.2
2012-07-26 01:54:00,0.0,1.9617,0.0010,380.37,0.31,198.9,32.5,137.99,33.87,24.65,36.46,1.02,-11.68,-25.34,-51,556,-935,29.5,26.8,8.4,29.5,1.2,-30.4,5.73,2.38,-26.1,33.2
2012-07-26 01:55:00,0.0,1.9601,0.0011,380.28,0.30,202.1,30.9,137.99,33.88,24.65,36.46,1.09,-12.69,-25.34,-51,556,-935,29.5,26.7,8.4,29.5,1.2,-30.6,5.73,2.38,-26.1,33.3
2012-07-26 01:56:00,0.0,1.9573,0.0016,380.84,0.28,205.2,25.1,137.99,33.89,24.65,36.46,1.10,-13.65,-25.33,-51,556,-935,29.6,26.0,8.0,29.5,1.2,-30.5,5.73,2.36,-26.1,33.3
2012-07-26 01:57:00,0.0,1.9572,0.0013,381.01,0.31,211.2,25.4,137.99,33.89,24.65,36.46,1.01,-14.55,-25.33,-51,556,-935,29.5,25.9,8.0,29.5,1.2,-30.5,5.73,2.35,-26.1,33.2
2012-07-26 01:58:00,0.0,1.9575,0.0012,380.75,0.35,204.9,23.0,137.99,33.90,24.65,36.46,1.03,-15.39,-25.33,-51,556,-935,29.6,26.4,8.2,29.5,1.2,-30.5,5.73,2.37,-26.1,33.2
2012-07-26 01:59:00,0.0,1.9579,0.0014,380.49,0.32,210.5,26.8,137.99,33.90,24.65,36.46,1.10,-16.16,-25.33,-51,556,-935,29.6,26.4,8.2,29.5,1.2,-30.4,5.73,2.38,-26.1,33.3
2012-07-26 02:00:00,0.0,1.9568,0.0008,380.49,0.27,209.4,26.6,137.99,33.91,24.65,36.45,1.07,-16.89,-25.33,-51,556,-935,29.6,26.2,8.1,29.5,1.2,-30.5,5.73,2.36,-26.0,33.4
2012-07-26 02:01:00,0.0,1.9559,0.0013,380.36,0.36,214.7,30.2,137.99,33.91,24.65,36.46,1.00,-17.56,-25.34,-51,556,-935,29.6,26.4,8.3,29.5,1.2,-30.5,5.73,2.35,-26.0,33.4
2012-07-26 02:02:00,0.0,1.9588,0.0014,380.24,0.30,211.3,32.2,137.98,33.92,24.64,36.46,1.04,-18.20,-25.34,-51,556,-935,29.6,26.6,8.4,29.6,1.2,-30.4,5.73,2.37,-26.0,33.3
2012-07-26 02:03:00,0.0,1.9580,0.0012,380.63,0.29,213.1,27.3,137.99,33.93,24.65,36.46,1.10,-18.79,-25.35,-51,556,-935,29.6,26.2,8.1,29.5,1.2,-30.4,5.73,2.38,-26.0,33.3
2012-07-26 02:04:00,0.0,1.9572,0.0012,380.45,0.30,215.0,30.4,137.99,33.93,24.65,36.46,1.05,-19.36,-25.36,-51,556,-935,29.6,26.2,8.2,29.6,1.2,-30.4,5.73,2.37,-26.0,33.3
2012-07-26 02:05:00,0.0,1.9538,0.0012,379.92,0.31,214.4,26.0,137.98,33.94,24.65,36.46,1.00,-19.90,-25.36,-51,556,-935,29.6,26.5,8.4,29.6,1.2,-30.5,5.73,2.34,-26.0,33.4
2012-07-26 02:06:00,0.0,1.9562,0.0012,379.77,0.34,212.8,33.6,137.98,33.95,24.64,36.46,1.04,-20.44,-25.36,-51,556,-935,29.7,26.4,8.3,29.6,1.1,-30.7,5.73,2.36,-26.0,33.4
2012-07-26 02:07:00,0.0,1.9570,0.0010,380.07,0.29,227.9,28.2,137.98,33.95,24.65,36.46,1.11,-20.95,-25.37,-51,556,-935,29.7,26.4,8.3,29.6,1.1,-30.7,5.73,2.38,-26.0,33.4
2012-07-26 02:08:00,0.0,1.9609,0.0021,379.74,0.34,217.5,30.6,137.98,33.96,24.65,36.46,1.05,-21.43,-25.39,-51,556,-935,29.7,27.5,8.9,29.6,1.1,-30.7,5.73,2.36,-26.0,33.5
2012-07-26 02:09:00,0.0,1.9618,0.0019,380.19,0.33,215.5,28.2,137.98,33.97,24.65,36.45,0.99,-21.89,-25.39,-51,556,-935,29.7,26.9,8.6,29.6,1.1,-30.7,5.73,2.35,-26.0,33.5
2012-07-26 02:10:00,0.0,1.9619,0.0011,380.39,0.35,214.8,30.6,137.98,33.97,24.65,36.46,1.03,-22.32,-25.40,-51,556,-935,29.7,26.6,8.5,29.6,1.1,-30.7,5.73,2.36,-26.0,33.4
2012-07-26 02:11:00,0.0,1.9620,0.0009,380.34,0.30,226.2,28.6,137.98,33.98,24.65,36.46,1.09,-22.73,-25.41,-51,556,-935,29.7,26.6,8.4,29.6,1.1,-30.7,5.73,2.38,-26.0,33.4
2012-07-26 02:12:00,0.0,1.9588,0.0017,380.63,0.33,221.7,30.0,137.98,33.99,24.65,36.45,1.07,-23.11,-25.41,-51,556,-935,29.7,26.0,8.1,29.6,1.1,-30.7,5.73,2.37,-26.0,33.4
2012-07-26 02:13:00,0.0,1.9528,0.0018,380.62,0.27,222.0,30.2,137.98,33.99,24.65,36.46,1.02,-23.46,-25.42,-51,556,-935,29.7,25.3,7.7,29.6,1.1,-30.6,5.73,2.34,-26.0,33.4
2012-07-26 02:14:00,0.0,1.9543,0.0011,380.21,0.40,216.2,25.3,137.98,34.00,24.65,36.47,0.99,-23.79,-25.44,-51,556,-935,29.7,26.2,8.2,29.6,1.1,-30.7,5.73,2.35,-26.0,33.4
2012-07-26 02:15:00,0.0,1.9545,0.0010,380.02,0.32,219.1,31.4,137.98,34.01,24.65,36.45,1.07,-24.10,-25.45,-51,556,-935,29.7,26.4,8.3,29.7,1.1,-30.7,5.73,2.37,-26.0,33.4
2012-07-26 02:16:00,0.0,1.9546,0.0012,379.61,0.31,217.4,32.5,137.98,34.02,24.65,36.45,1.09,-24.39,-25.45,-51,556,-935,29.7,26.4,8.4,29.7,1.1,-30.6,5.73,2.37,-26.0,33.5
2012-07-26 02:17:00,0.0,1.9523,0.0014,379.40,0.27,214.4,31.0,137.98,34.02,24.65,36.46,1.03,-24.66,-25.47,-52,557,-935,29.7,26.4,8.4,29.7,1.1,-30.8,5.73,2.34,-26.0,33.6
2012-07-26 02:18:00,0.0,1.9550,0.0023,379.49,0.27,223.9,25.9,137.98,34.03,24.65,36.46,1.00,-24.93,-25.47,-52,557,-935,29.7,27.1,8.8,29.7,1.1,-30.9,5.73,2.35,-25.9,33.6
2012-07-26 02:19:00,0.0,1.9585,0.0011,379.90,0.44,227.6,27.0,137.98,34.04,24.64,36.45,1.04,-25.17,-25.48,-51,557,-935,29.7,26.4,8.4,29.7,1.1,-30.9,5.73,2.37,-25.9,33.6
2012-07-26 02:20:00,0.0,1.9584,0.0016,380.29,0.31,222.2,30.8,137.98,34.04,24.65,36.45,1.07,-25.41,-25.49,-51,557,-935,29.8,26.3,8.4,29.7,1.1,-30.8,5.73,2.37,-25.9,33.6